Roanoke, VA

7:26 AM EDT on April 23, 2017 (GMT -0400)
Roanoke Regional-Woodrum

Weather History for KROA - February, 2015

Change the Weather History Date:

Monday, February 2, 2015

  Actual Average Record
Temperature  
Mean Temperature 37 °F 37 °F  
Max Temperature 50 °F 47 °F 76 °F (1989)
Min Temperature 24 °F 28 °F 9 °F (1971)
Degree Days  
Heating Degree Days 28 28  
Month to date heating degree days 51 56  
Since 1 July heating degree days 2523 2548  
Cooling Degree Days 0 0  
Month to date cooling degree days 0 0  
Year to date cooling degree days 0 0  
Moisture  
Dew Point 27 °F    
Average Humidity 69    
Maximum Humidity 93    
Minimum Humidity 44    
Precipitation  
Precipitation 0.13 in 0.11 in 1.40 in (1983)
Month to date precipitation 0.16 0.21  
Year to date precipitation 1.47 3.13  
Snow  
Snow T in - - ()
Month to date snowfall T  
Since 1 July snowfall 0.7  
Snow Depth 0.00 in    
Sea Level Pressure  
Sea Level Pressure 29.78 in    
Wind  
Wind Speed 14 mph (NW)    
Max Wind Speed 33 mph    
Max Gust Speed 45 mph    
Visibility 10 miles    
Events Rain    
T = Trace of Precipitation, MM = Missing Value Source: NWS Daily Summary

Daily Weather History Graph

Daily Weather History Graph

Search for Another Location

Airport or City:

Trip Planner

Search our weather history database for the weather conditions in past years. The results will help you decide how hot, cold, wet, or windy it might be!

Date:

Astronomy

Feb. 02, 2015 Rise Set
Actual Time 7:22 AM EST 5:45 PM EST
Civil Twilight 6:55 AM EST 6:12 PM EST
Nautical Twilight 6:23 AM EST 6:43 PM EST
Astronomical Twilight 5:53 AM EST 7:14 PM EST
Moon 4:55 PM EST (2/2) 6:11 AM EST (2/2)
Length of Visible Light 11h 17m
Length of Day
10h 22m
Waxing Gibbous, 99% of the Moon is Illuminated
Feb 2
Waxing Gibbous
Feb 3
Full
Feb 11
Last Quarter
Feb 18
New
Feb 25
First Quarter

Hourly Weather History & Observations

Time (EST) Temp. Windchill Dew Point Humidity Pressure Visibility Wind Dir Wind Speed Gust Speed Precip Events Conditions
12:54 AM 44.1 °F 39.0 °F 39.0 °F 82% 29.71 in 10.0 mi SE 9.2 mph - 0.01 in Rain Light Rain
1:54 AM 44.1 °F - 41.0 °F 89% 29.66 in 10.0 mi Calm Calm - 0.05 in   Overcast
2:54 AM 45.0 °F 41.8 °F 42.1 °F 90% 29.61 in 10.0 mi ESE 5.8 mph - N/A   Overcast
3:54 AM 45.0 °F 43.5 °F 43.0 °F 93% 29.56 in 10.0 mi NE 3.5 mph - 0.01 in   Overcast
4:54 AM 46.0 °F 44.8 °F 44.1 °F 93% 29.53 in 10.0 mi East 3.5 mph - N/A   Mostly Cloudy
5:54 AM 46.0 °F 44.8 °F 43.0 °F 89% 29.48 in 10.0 mi ENE 3.5 mph - 0.00 in   Overcast
6:54 AM 46.0 °F - 44.1 °F 93% 29.49 in 10.0 mi Calm Calm - 0.00 in Rain Light Rain
7:18 AM 46.9 °F - 44.1 °F 90% 29.48 in 10.0 mi NW 5.8 mph - 0.00 in Rain Light Rain
7:54 AM 50.0 °F - 42.1 °F 74% 29.51 in 10.0 mi WNW 17.3 mph 32.2 mph 0.06 in Rain Light Rain
8:35 AM 46.9 °F - 39.0 °F 74% 29.56 in 10.0 mi West 11.5 mph 23.0 mph 0.00 in Rain Light Rain
8:54 AM 46.0 °F 40.6 °F 37.9 °F 73% 29.58 in 10.0 mi WNW 11.5 mph 18.4 mph 0.00 in   Overcast
9:54 AM 46.0 °F 39.3 °F 33.1 °F 61% 29.60 in 10.0 mi WNW 16.1 mph 26.5 mph N/A   Overcast
10:54 AM 46.9 °F - 30.9 °F 54% 29.60 in 10.0 mi WNW 18.4 mph 33.4 mph N/A   Scattered Clouds
11:54 AM 42.1 °F 31.5 °F 28.9 °F 60% 29.62 in 10.0 mi WNW 28.8 mph 38.0 mph 0.00 in Rain Light Rain
12:54 PM 41.0 °F 29.8 °F 26.1 °F 55% 29.65 in 10.0 mi WNW 29.9 mph 40.3 mph 0.00 in   Scattered Clouds
1:54 PM 36.0 °F 23.0 °F 18.0 °F 48% 29.73 in 10.0 mi WNW 29.9 mph 40.3 mph 0.00 in   Partly Cloudy
2:54 PM 35.6 °F 22.5 °F 15.8 °F 44% 29.79 in 10.0 mi WNW 29.9 mph 39.1 mph N/A   Mostly Cloudy
3:54 PM 32.0 °F 19.8 °F 14.0 °F 48% 29.84 in 10.0 mi WNW 20.7 mph 32.2 mph N/A   Mostly Cloudy
4:54 PM 28.9 °F 16.9 °F 12.0 °F 49% 29.93 in 10.0 mi NW 17.3 mph 29.9 mph N/A   Mostly Cloudy
5:54 PM 27.0 °F 12.8 °F 10.0 °F 49% 29.99 in 10.0 mi WNW 21.9 mph 27.6 mph N/A   Partly Cloudy
6:54 PM 26.1 °F 14.0 °F 10.0 °F 51% 30.04 in 10.0 mi NW 15.0 mph 32.2 mph N/A   Partly Cloudy
7:54 PM 26.1 °F 14.0 °F 10.9 °F 53% 30.07 in 10.0 mi NW 15.0 mph 24.2 mph N/A   Partly Cloudy
8:54 PM 25.0 °F 14.8 °F 10.9 °F 55% 30.13 in 10.0 mi WNW 10.4 mph - N/A   Scattered Clouds
9:54 PM 25.0 °F 12.6 °F 10.0 °F 53% 30.15 in 10.0 mi WNW 15.0 mph 21.9 mph N/A   Partly Cloudy
10:54 PM 24.1 °F 12.5 °F 10.9 °F 57% 30.18 in 10.0 mi NW 12.7 mph - N/A   Mostly Cloudy
11:26 PM 24.1 °F 13.1 °F 10.9 °F 57% 30.17 in 10.0 mi NW 11.5 mph - N/A   Overcast
11:37 PM 24.1 °F 11.5 °F 10.9 °F 57% 30.17 in 10.0 mi WNW 15.0 mph 20.7 mph N/A   Mostly Cloudy
11:54 PM 24.1 °F 14.4 °F 10.0 °F 55% 30.21 in 10.0 mi WNW 9.2 mph - N/A   Scattered Clouds